Weather History for Saratoga Shively Field Airpor, WY

Change the Weather History Date:

Tuesday, February 4, 2014

  Actual Average Record
Temperature  
Mean Temperature 2 °F -  
Max Temperature 17 °F 32 °F 17 °F (2014)
Min Temperature -14 °F 6 °F -14 °F (2014)
Degree Days  
Heating Degree Days 64    
Moisture  
Dew Point 0 °F    
Average Humidity 85    
Maximum Humidity 93    
Minimum Humidity 73    
Precipitation  
Precipitation 0.00 in - - ()
Sea Level Pressure  
Sea Level Pressure 29.83 in    
Wind  
Wind Speed 6 mph (WNW)    
Max Wind Speed 20 mph    
Max Gust Speed 24 mph    
Visibility 5 miles    
Events Snow    
Averages and records for this station are not official NWS values.
T = Trace of Precipitation, MM = Missing Value Source: NWS Daily Summary

Daily Weather History Graph

Daily Weather History Graph

Search for Another Location

Airport:

Trip Planner

Search our weather history database for the weather conditions in past years. The results will help you decide how hot, cold, wet, or windy it might be!

Date:

Astronomy

Feb. 04, 2014 Rise Set
Actual Time 7:15 AM MST 5:27 PM MST
Civil Twilight 6:46 AM MST 5:56 PM MST
Nautical Twilight 6:13 AM MST 6:29 PM MST
Astronomical Twilight 5:41 AM MST 7:01 PM MST
Moon 9:50 AM MST (2/4) 11:29 PM MST (2/4)
Length of Visible Light 11h 09m
Length of Day
10h 11m
Waxing Crescent, 29% of the Moon is Illuminated
Feb 4
Waxing Crescent
Feb 6
First Quarter
Feb 14
Full
Feb 22
Last Quarter
Mar 1
New

Hourly Weather History & Observations

Time (MST) Temp. Windchill Dew Point Humidity Pressure Visibility Wind Dir Wind Speed Gust Speed Precip Events Conditions
12:15 AM 17.6 °F 10.7 °F 10.4 °F 73% 29.73 in 10.0 mi SE 4.6 mph - N/A   Scattered Clouds
12:35 AM 10.4 °F - 6.8 °F 85% 29.72 in 10.0 mi Calm Calm - N/A   Mostly Cloudy
12:55 AM 12.2 °F - 6.8 °F 79% 29.71 in 10.0 mi Calm Calm - N/A   Overcast
1:15 AM 12.2 °F 6.1 °F 8.6 °F 85% 29.71 in 10.0 mi NNE 3.5 mph - N/A   Overcast
1:35 AM 12.2 °F 6.1 °F 8.6 °F 85% 29.71 in 10.0 mi North 3.5 mph - N/A   Overcast
1:55 AM 12.2 °F - 8.6 °F 85% 29.71 in 7.0 mi Calm Calm - N/A   Overcast
2:15 AM 12.2 °F - 8.6 °F 85% 29.71 in 3.0 mi Calm Calm - N/A Snow Light Snow
2:35 AM 12.2 °F - 8.6 °F 85% 29.71 in 3.0 mi Calm Calm - N/A Snow Light Snow
2:55 AM 12.2 °F - 10.4 °F 92% 29.71 in 1.0 mi Calm Calm - N/A Snow Light Snow
3:15 AM 12.2 °F - 10.4 °F 92% 29.71 in 1.8 mi Calm Calm - N/A Snow Light Snow
3:35 AM 14.0 °F - 12.2 °F 93% 29.71 in 1.2 mi Calm Calm - N/A Snow Light Snow
3:55 AM 14.0 °F 8.2 °F 12.2 °F 93% 29.71 in 1.5 mi NNE 3.5 mph - N/A Snow Light Snow
4:15 AM 14.0 °F 8.2 °F 12.2 °F 93% 29.71 in 2.0 mi NNE 3.5 mph - N/A Snow Light Snow
4:35 AM 14.0 °F 8.2 °F 12.2 °F 93% 29.71 in 1.0 mi NNE 3.5 mph - N/A Snow Snow
4:55 AM 14.0 °F - 12.2 °F 93% 29.71 in 1.8 mi Calm Calm - N/A Snow Light Snow
5:15 AM 14.0 °F - 12.2 °F 93% 29.71 in 2.5 mi Calm Calm - N/A Snow Light Snow
5:35 AM 14.0 °F - 12.2 °F 93% 29.71 in 3.0 mi Calm Calm - N/A Snow Light Snow
5:55 AM 14.0 °F - 12.2 °F 93% 29.71 in 2.0 mi Calm Calm - N/A Snow Light Snow
6:15 AM 14.0 °F 6.5 °F 12.2 °F 93% 29.71 in 2.0 mi NW 4.6 mph - N/A Snow Light Snow
6:35 AM 14.0 °F 6.5 °F 12.2 °F 93% 29.71 in 1.8 mi NW 4.6 mph - N/A Snow Light Snow
6:55 AM 12.2 °F 2.9 °F 10.4 °F 92% 29.71 in 3.0 mi NW 5.8 mph - N/A Snow Light Snow
7:15 AM 12.2 °F 0.7 °F 10.4 °F 92% 29.72 in 4.0 mi NW 8.1 mph - N/A Snow Light Snow
7:35 AM 12.2 °F -0.2 °F 10.4 °F 92% 29.72 in 2.0 mi NW 9.2 mph - N/A Snow Light Snow
7:55 AM 12.2 °F -0.2 °F 10.4 °F 92% 29.73 in 0.8 mi NW 9.2 mph - N/A Snow Light Snow
8:15 AM 10.4 °F -2.4 °F 8.6 °F 92% 29.74 in 1.2 mi NW 9.2 mph - N/A Snow Light Snow
8:35 AM 10.4 °F -1.5 °F 5.0 °F 79% 29.74 in 2.0 mi NW 8.1 mph - N/A Snow Light Snow
8:55 AM 8.6 °F -6.3 °F 5.0 °F 85% 29.75 in 1.8 mi NW 11.5 mph - N/A Snow Light Snow
9:15 AM 8.6 °F -7.0 °F 5.0 °F 85% 29.75 in 1.8 mi NW 12.7 mph - N/A Snow Light Snow
9:35 AM 8.6 °F -7.7 °F 5.0 °F 85% 29.77 in 1.5 mi WNW 13.8 mph - N/A Snow Light Snow
9:55 AM 8.6 °F -7.0 °F 5.0 °F 85% 29.77 in 1.2 mi NW 12.7 mph - N/A Snow Light Snow
10:15 AM 8.6 °F -7.0 °F 5.0 °F 85% 29.78 in 1.2 mi NNW 12.7 mph - N/A Snow Light Snow
10:35 AM 8.6 °F -7.7 °F 3.2 °F 79% 29.79 in 1.2 mi NW 13.8 mph - N/A Snow Light Snow
10:55 AM 6.8 °F -10.0 °F 3.2 °F 85% 29.80 in 1.0 mi NW 13.8 mph - N/A Snow Light Snow
11:15 AM 6.8 °F -10.0 °F 1.4 °F 79% 29.80 in 1.2 mi NW 13.8 mph - N/A Snow Light Snow
11:35 AM 6.8 °F -10.0 °F 1.4 °F 79% 29.81 in 1.5 mi NW 13.8 mph - N/A Snow Light Snow
11:55 AM 6.8 °F -10.0 °F 1.4 °F 79% 29.81 in 1.8 mi NW 13.8 mph 17.3 mph N/A Snow Light Snow
12:15 PM 5.0 °F -12.3 °F 1.4 °F 85% 29.81 in 1.2 mi WNW 13.8 mph - N/A Snow Light Snow
12:35 PM 6.8 °F -9.3 °F 1.4 °F 79% 29.81 in 1.5 mi WNW 12.7 mph - N/A   Haze
12:55 PM 8.6 °F -7.7 °F 3.2 °F 79% 29.81 in 1.8 mi WNW 13.8 mph - N/A Snow Light Snow
1:15 PM 8.6 °F -8.3 °F 3.2 °F 79% 29.81 in 3.0 mi WNW 15.0 mph - N/A   Haze
1:35 PM 5.0 °F -15.2 °F 1.4 °F 85% 29.83 in 2.5 mi NW 19.6 mph 24.2 mph N/A   Haze
1:55 PM 5.0 °F -14.2 °F 1.4 °F 85% 29.83 in 2.0 mi NW 17.3 mph 23.0 mph N/A   Haze
2:15 PM 5.0 °F -13.0 °F -0.4 °F 78% 29.83 in 2.0 mi NW 15.0 mph 21.9 mph N/A   Haze
2:35 PM 5.0 °F -13.0 °F -0.4 °F 78% 29.85 in 7.0 mi NW 15.0 mph - N/A   Overcast
2:55 PM 3.2 °F -14.6 °F -0.4 °F 85% 29.86 in 2.0 mi NW 13.8 mph - N/A   Haze
3:15 PM 3.2 °F -13.9 °F -0.4 °F 85% 29.87 in 2.0 mi NW 12.7 mph - N/A Snow Light Snow
3:35 PM 3.2 °F -13.9 °F -0.4 °F 85% 29.88 in 1.8 mi NW 12.7 mph - N/A   Haze
3:56 PM 3.2 °F -13.1 °F -0.4 °F 85% 29.89 in 2.0 mi NW 11.5 mph - N/A   Overcast
4:15 PM 1.4 °F -17.6 °F -4.0 °F 78% 29.89 in 3.0 mi NW 15.0 mph - N/A   Haze
4:35 PM -0.4 °F -15.7 °F -4.0 °F 85% 29.90 in 7.0 mi WNW 9.2 mph - N/A   Mostly Cloudy
4:55 PM -0.4 °F -15.7 °F -4.0 °F 85% 29.90 in 10.0 mi West 9.2 mph - N/A   Mostly Cloudy
5:15 PM -2.2 °F -18.0 °F -5.8 °F 85% 29.91 in 10.0 mi West 9.2 mph - N/A   Scattered Clouds
5:35 PM -4.0 °F -20.2 °F -7.6 °F 85% 29.92 in 10.0 mi West 9.2 mph - N/A   Mostly Cloudy
5:55 PM -5.8 °F -22.4 °F -9.4 °F 84% 29.93 in 10.0 mi West 9.2 mph - N/A   Mostly Cloudy
6:15 PM -5.8 °F -22.4 °F -9.4 °F 84% 29.94 in 10.0 mi West 9.2 mph - N/A   Overcast
6:35 PM -5.8 °F -21.2 °F -9.4 °F 84% 29.95 in 10.0 mi West 8.1 mph - N/A   Overcast
6:55 PM -7.6 °F -24.6 °F -11.2 °F 84% 29.96 in 10.0 mi West 9.2 mph - N/A   Overcast
7:15 PM -7.6 °F -22.1 °F -11.2 °F 84% 29.96 in 10.0 mi WSW 6.9 mph - N/A   Mostly Cloudy
7:35 PM -7.6 °F -23.4 °F -13.0 °F 77% 29.97 in 10.0 mi WSW 8.1 mph - N/A   Overcast
7:55 PM -7.6 °F -23.4 °F -13.0 °F 77% 29.97 in 10.0 mi WSW 8.1 mph - N/A   Mostly Cloudy
8:15 PM -9.4 °F -25.6 °F -14.8 °F 77% 29.98 in 10.0 mi WSW 8.1 mph - N/A   Scattered Clouds
8:35 PM -9.4 °F -24.3 °F -14.8 °F 77% 29.98 in 10.0 mi WSW 6.9 mph - N/A   Clear
8:55 PM -11.2 °F -26.4 °F -14.8 °F 84% 29.99 in 10.0 mi WSW 6.9 mph - N/A   Mostly Cloudy
9:15 PM -11.2 °F -26.4 °F -16.6 °F 77% 30.00 in 10.0 mi WSW 6.9 mph - N/A   Mostly Cloudy
9:35 PM -11.2 °F -26.4 °F -16.6 °F 77% 30.00 in 10.0 mi WSW 6.9 mph - N/A   Mostly Cloudy
9:55 PM -11.2 °F -24.8 °F -16.6 °F 77% 30.00 in 10.0 mi WSW 5.8 mph - N/A   Overcast
10:15 PM -13.0 °F -25.1 °F -16.6 °F 84% 30.01 in 10.0 mi West 4.6 mph - N/A   Overcast
10:35 PM -14.8 °F -24.8 °F -18.4 °F 84% 30.01 in 10.0 mi WNW 3.5 mph - N/A   Scattered Clouds
10:55 PM -13.0 °F - -16.6 °F 84% 30.02 in 10.0 mi Calm Calm - N/A   Clear
11:15 PM -14.8 °F - -18.4 °F 84% 30.02 in 10.0 mi Calm Calm - N/A   Scattered Clouds
11:35 PM -13.0 °F - -16.6 °F 84% 30.02 in 10.0 mi Calm Calm - N/A   Mostly Cloudy
11:55 PM -13.0 °F - -16.6 °F 84% 30.02 in 10.0 mi Calm Calm - N/A   Scattered Clouds